TimeMST,TemperatureF,Dew PointF,Humidity,Sea Level PressureIn,VisibilityMPH,Wind Direction,Wind SpeedMPH,Gust SpeedMPH,PrecipitationIn,Events,Conditions,WindDirDegrees,DateUTC
12:16 AM,50.0,3.2,15,29.98,10.0,ESE,12.7,-,N/A,,Clear,120,2012-11-25 07:16:00
12:36 AM,50.0,5.0,16,29.97,10.0,SSW,5.8,-,N/A,,Clear,200,2012-11-25 07:36:00
12:55 AM,51.8,3.2,14,29.97,10.0,ESE,3.5,-,N/A,,Clear,110,2012-11-25 07:55:00
1:16 AM,51.8,3.2,14,29.95,10.0,ESE,10.4,16.1,N/A,,Clear,120,2012-11-25 08:16:00
1:36 AM,51.8,1.4,13,29.95,10.0,WNW,3.5,-,N/A,,Clear,290,2012-11-25 08:36:00
1:56 AM,53.6,1.4,12,29.96,10.0,East,5.8,-,N/A,,Clear,100,2012-11-25 08:56:00
2:16 AM,51.8,3.2,14,29.96,10.0,NNE,6.9,-,N/A,,Clear,20,2012-11-25 09:16:00
2:36 AM,51.8,1.4,13,29.95,10.0,East,8.1,-,N/A,,Clear,90,2012-11-25 09:36:00
2:55 AM,50.0,1.4,14,29.95,10.0,ENE,5.8,-,N/A,,Clear,70,2012-11-25 09:55:00
3:16 AM,50.0,1.4,14,29.95,10.0,East,5.8,-,N/A,,Clear,90,2012-11-25 10:16:00
3:36 AM,51.8,1.4,13,29.94,10.0,East,5.8,-,N/A,,Clear,90,2012-11-25 10:36:00
3:55 AM,50.0,5.0,16,29.93,10.0,NNE,5.8,-,N/A,,Clear,30,2012-11-25 10:55:00
4:16 AM,48.2,5.0,17,29.93,10.0,NE,5.8,-,N/A,,Clear,40,2012-11-25 11:16:00
4:36 AM,41.0,8.6,26,29.93,10.0,Calm,Calm,-,N/A,,Clear,0,2012-11-25 11:36:00
4:55 AM,42.8,8.6,25,29.93,10.0,Calm,Calm,-,N/A,,Clear,0,2012-11-25 11:55:00
5:55 AM,44.6,5.0,20,29.93,20.0,SSE,4.6,-,N/A,,Mostly Cloudy,150,2012-11-25 12:55:00
6:55 AM,48.2,3.2,16,29.92,60.0,Calm,Calm,-,N/A,,Mostly Cloudy,0,2012-11-25 13:55:00
7:47 AM,41.0,8.6,26,29.92,60.0,WNW,10.4,-,N/A,,Mostly Cloudy,290,2012-11-25 14:47:00
8:47 AM,39.2,15.8,39,29.93,60.0,Variable,3.5,-,N/A,,Mostly Cloudy,0,2012-11-25 15:47:00
9:48 AM,41.0,14.0,33,29.92,70.0,WSW,3.5,-,N/A,,Mostly Cloudy,240,2012-11-25 16:48:00
10:45 AM,53.6,10.4,18,29.89,70.0,Variable,3.5,-,N/A,,Scattered Clouds,0,2012-11-25 17:45:00
11:48 AM,59.0,-0.4,9,29.86,50.0,Variable,4.6,-,N/A,,Mostly Cloudy,0,2012-11-25 18:48:00
1:47 PM,62.6,-7.6,6,29.82,60.0,ESE,11.5,-,N/A,,Mostly Cloudy,120,2012-11-25 20:47:00
2:45 PM,64.4,-5.8,6,29.79,60.0,West,29.9,36.8,N/A,,Mostly Cloudy,260,2012-11-25 21:45:00
3:48 PM,62.6,-2.2,7,29.81,60.0,West,17.3,28.8,N/A,,Mostly Cloudy,280,2012-11-25 22:48:00
4:46 PM,57.2,-0.4,10,29.83,45.0,West,15.0,-,N/A,,Mostly Cloudy,260,2012-11-25 23:46:00
5:21 PM,46.4,19.4,34,29.84,45.0,North,15.0,-,N/A,,Mostly Cloudy,350,2012-11-26 00:21:00
5:48 PM,42.8,21.2,42,29.87,30.0,North,16.1,-,N/A,,Mostly Cloudy,350,2012-11-26 00:48:00
6:46 PM,42.8,17.6,36,29.91,30.0,NW,6.9,-,N/A,,Scattered Clouds,320,2012-11-26 01:46:00
7:47 PM,44.6,15.8,31,29.94,30.0,Variable,4.6,-,N/A,,Scattered Clouds,0,2012-11-26 02:47:00
8:55 PM,41.0,19.4,42,29.96,30.0,WSW,5.8,-,N/A,,Scattered Clouds,240,2012-11-26 03:55:00
9:47 PM,41.0,15.8,36,29.96,30.0,South,4.6,-,N/A,,Scattered Clouds,190,2012-11-26 04:47:00
10:15 PM,39.2,17.6,42,29.96,10.0,WSW,5.8,-,N/A,,Clear,240,2012-11-26 05:15:00
10:36 PM,42.8,14.0,31,29.97,10.0,SW,5.8,-,N/A,,Clear,220,2012-11-26 05:36:00
10:56 PM,39.2,15.8,39,29.97,10.0,WSW,3.5,-,N/A,,Clear,250,2012-11-26 05:56:00
11:16 PM,37.4,17.6,45,29.98,10.0,Calm,Calm,-,N/A,,Clear,0,2012-11-26 06:16:00
11:36 PM,37.4,17.6,45,29.98,10.0,West,4.6,-,N/A,,Clear,270,2012-11-26 06:36:00
11:56 PM,41.0,17.6,39,29.99,10.0,West,4.6,-,N/A,,Clear,270,2012-11-26 06:56:00